Helicity
14 9 7 -5 15 71 39 44 47 58 69 19 33 19 53 21 28 91 86 82 22 55 44 79 27 2 29 70 65 25 63 23 73 32 31 40 81 132 194 155 156 160 123 73
2 8 10 2 15 6 18 23 35 58 50 37 12 14 36 43 6 3 28 18 22 23 30 20 28 32 41 76 35 13 24 20 40 37 27 35 31 58 141 139 142 154 139 71
-1 14 13 10 3 7 -3 23 17 29 29 23 24 9 39 26 -5 9 14 13 31 19 28 39 35 49 35 56 42 53 55 48 42 55 48 39 40 49 67 99 94 28 52 43
5 20 21 11 34 9 -7 36 36 32 17 20 6 6 17 32 4 20 2 -9 23 26 19 9 37 30 16 18 25 29 41 32 38 53 37 33 17 47 70 91 73 86 167 55
-8 24 40 23 43 -21 -2 41 45 27 29 17 7 13 12 25 44 21 10 18 22 44 44 46 23 22 22 26 33 58 61 41 43 32 42 32 33 32 28 48 42 66 129 166
0 22 30 50 39 -15 -11 -4 16 12 12 24 20 22 6 -3 18 7 29 32 40 22 29 44 64 70 65 61 37 44 57 42 36 35 26 33 48 34 43 64 57 64 78 72
19 43 60 66 78 56 23 3 -15 16 37 53 52 14 12 1 4 -5 11 35 35 23 33 25 10 32 29 33 37 49 45 41 43 35 17 34 24 43 42 47 44 43 52 94
59 77 91 83 76 71 59 51 39 30 41 26 60 68 25 27 1 2 2 19 43 30 38 35 41 41 30 30 53 52 63 45 33 33 24 16 24 20 33 50 51 36 41 91
62 59 94 104 125 104 107 89 39 40 51 40 73 68 34 34 37 14 25 18 19 12 15 28 42 41 26 30 28 35 53 98 63 45 41 13 29 19 26 24 40 73 77 55
83 58 78 91 125 137 96 105 79 59 52 39 51 44 61 60 49 35 34 35 24 29 22 32 36 39 55 24 15 36 37 35 38 31 33 33 16 19 33 38 45 50 65 62
110 62 60 75 83 85 132 83 63 77 53 23 26 44 34 56 70 57 62 41 32 41 34 28 39 43 28 39 44 29 31 27 34 29 33 20 39 49 49 35 34 53 60 57
132 90 64 82 105 94 100 76 57 43 52 53 45 49 65 59 29 76 79 90 96 67 48 43 46 38 32 29 34 62 35 32 37 19 17 31 16 90 85 76 58 47 43 51
169 154 90 83 90 85 99 80 57 48 8 0 30 73 19 34 23 95 88 68 109 81 89 44 41 40 47 46 35 30 16 40 42 53 25 40 20 59 47 66 69 62 56 47
188 179 118 117 100 90 108 97 53 57 21 19 41 71 64 94 57 87 87 100 134 112 81 61 54 46 43 46 45 54 51 78 29 33 25 30 28 73 91 66 57 56 61 39
155 180 188 110 127 134 126 106 71 101 78 48 14 24 27 10 39 52 70 39 50 71 95 65 52 62 56 48 34 15 50 48 48 48 61 87 98 143 102 78 63 56 53 60
111 214 210 89 168 168 117 52 47 25 67 -27 -27 26 54 80 85 72 62 88 91 114 87 85 67 82 62 20 3 20 49 55 51 21 33 66 77 77 75 65 58 46 31 38
71 278 188 156 196 99 132 87 73 87 93 27 -16 2 23 67 76 105 125 116 130 138 99 72 77 51 64 71 53 53 29 44 54 107 102 86 68 95 99 87 65 44 38 39
193 162 269 119 50 128 26 -20 88 149 60 43 0 -20 44 10 37 68 73 126 119 76 120 100 78 69 88 36 -2 18 40 62 137 143 137 122 112 116 96 73 47 34 31 43
268 171 151 122 112 41 -34 37 106 101 61 13 3 41 54 12 4 52 44 48 121 130 123 112 83 91 103 62 70 67 87 91 114 150 142 122 82 93 101 74 47 43 67 59
257 195 154 91 -35 103 54 27 44 47 35 2 -34 3 16 11 27 16 37 61 49 44 93 80 86 56 85 97 154 158 175 137 128 106 81 96 90 86 79 74 64 50 46 50
94 117 91 20 53 39 11 36 14 9 -17 21 20 25 13 5 18 29 32 18 58 50 49 57 73 42 117 178 176 139 137 138 130 122 91 72 70 71 54 45 49 51 52 55
115 68 22 -2 7 23 24 29 13 2 -5 22 -6 3 60 23 7 17 -7 63 28 62 75 72 46 70 95 91 80 79 69 76 89 90 79 70 64 60 52 45 39 50 49 41
102 50 19 -18 11 4 -2 4 1 -6 12 14 -2 -6 -12 2 11 9 18 42 53 46 42 28 36 61 78 77 68 82 80 69 70 51 54 60 70 70 66 68 68 65 45 46
60 66 21 1 -2 -11 24 20 1 29 5 1 5 2 10 -3 16 27 42 43 65 43 19 13 20 62 63 64 68 63 54 25 7 4 3 14 22 30 45 64 69 65 56 55
54 32 11 3 11 8 25 21 -3 -19 -6 8 13 13 -3 8 17 16 35 31 37 27 19 13 31 50 36 22 17 12 20 13 0 -9 -15 -23 -24 -11 3 12 21 27 39 45
52 36 23 18 18 16 30 23 2 18 14 20 22 29 30 31 32 27 29 45 43 40 30 9 30 23 19 12 14 21 23 17 14 8 2 -5 -9 -15 -10 6 5 5 33 50
46 23 29 46 46 35 39 50 54 34 36 45 40 38 70 66 44 45 43 43 55 54 34 15 -2 9 -1 10 21 32 39 37 35 30 28 16 -2 -17 -12 -7 -2 10 6 34
Wind_Speed
75 79 81 90 91 81 52 42 46 36 34 49 37 32 18 19 19 28 25 24 15 15 16 16 22 24 24 25 25 25 22 19 26 25 26 34 38 44 42 41 42 37 42 43
78 78 80 85 91 81 46 45 37 34 32 40 49 12 15 20 26 27 22 23 22 22 23 24 21 21 20 24 22 25 28 24 25 32 35 36 41 41 38 31 38 41 44 38
77 78 81 88 90 76 47 44 44 36 44 40 42 42 18 17 20 23 29 27 31 28 26 25 23 20 24 24 24 27 29 28 30 34 33 29 36 41 34 36 43 40 41 26
77 80 81 82 89 78 46 48 43 42 40 38 44 44 35 31 31 29 29 30 32 33 32 29 26 25 22 26 30 30 31 31 30 30 30 33 36 38 34 41 42 44 41 43
76 77 80 81 89 76 54 45 45 43 28 31 42 46 41 42 39 36 34 31 33 32 31 33 34 31 32 33 34 32 32 31 31 37 35 37 44 42 41 35 39 46 40 38
74 75 79 79 84 71 56 52 47 37 33 42 43 39 42 43 44 38 38 41 40 35 35 35 35 32 32 31 33 30 31 27 32 35 35 41 48 47 40 38 34 30 39 41
71 73 71 73 74 69 53 49 46 44 38 47 45 39 46 45 47 45 44 42 43 34 36 37 27 25 26 29 33 34 31 31 33 36 36 43 30 31 26 25 25 25 40 31
64 67 69 69 67 70 55 52 47 46 46 46 51 48 49 50 47 42 41 37 35 36 36 34 33 33 33 32 33 32 37 35 33 34 35 40 36 32 28 20 34 31 26 31
58 60 60 61 60 60 56 51 51 48 51 39 49 56 49 41 46 49 34 30 32 34 36 35 39 38 35 33 34 32 33 36 34 31 35 36 31 29 28 31 31 28 18 29
54 56 59 61 55 53 51 49 49 50 55 49 47 44 46 44 35 43 47 35 36 31 37 38 36 37 34 35 33 28 28 32 38 42 40 40 31 26 30 33 29 22 28 35
49 54 57 61 58 52 57 50 45 51 57 70 55 41 37 47 42 36 42 40 32 33 38 38 36 37 34 36 33 29 25 31 34 39 42 45 28 29 36 24 22 26 28 29
50 51 53 55 57 51 47 49 42 45 54 62 70 75 66 48 49 44 41 42 38 34 36 36 37 39 35 39 37 33 39 38 35 34 39 33 24 26 25 30 28 29 27 29
49 49 48 50 49 45 45 46 55 54 61 76 58 49 51 17 16 36 36 43 40 36 39 40 38 39 38 39 43 41 40 37 39 39 38 29 26 24 30 32 27 27 28 28
50 46 45 48 49 44 43 48 52 52 55 62 56 45 51 49 44 16 26 48 42 44 44 41 41 40 35 41 39 41 37 28 39 45 46 39 36 28 23 30 31 31 35 36
51 43 39 43 43 38 44 49 50 41 48 61 72 81 61 57 41 41 18 28 53 49 47 44 43 41 41 42 43 47 36 37 39 41 35 32 30 24 31 35 36 39 43 44
48 40 31 32 34 40 48 52 43 39 31 57 59 52 64 61 39 17 27 24 35 38 45 50 47 41 41 41 38 39 37 18 33 44 34 35 34 34 35 39 42 44 47 47
50 19 23 25 31 23 40 46 44 39 36 49 57 52 41 39 29 26 32 21 32 37 45 50 50 46 41 51 52 37 31 26 27 30 36 42 43 40 41 44 47 48 49 47
18 16 21 23 37 48 59 43 6 23 40 41 46 49 47 36 32 32 23 31 35 44 46 43 45 46 47 59 46 36 41 37 27 30 32 41 45 47 50 49 51 53 54 50
16 22 30 42 45 52 49 43 17 17 25 39 36 42 42 43 39 30 27 26 38 39 46 45 41 45 50 51 49 48 37 37 38 31 35 42 47 48 48 50 53 53 54 50
25 32 41 45 47 28 31 34 24 23 27 23 35 36 40 41 36 32 25 27 34 34 38 30 43 63 52 46 43 39 39 37 39 42 47 46 48 51 51 52 55 57 58 58
34 39 38 40 31 32 36 27 21 24 31 23 30 28 40 38 33 31 26 27 25 34 30 29 41 53 43 38 39 40 43 43 44 45 47 49 53 55 58 58 56 58 60 62
29 32 37 34 33 36 37 31 25 24 32 25 36 32 26 37 38 41 40 35 30 27 22 29 38 39 31 30 32 35 36 37 38 42 46 49 52 54 55 55 55 56 60 64
30 35 34 35 30 34 35 35 29 31 31 37 39 38 37 36 40 36 38 38 37 27 29 39 38 29 28 28 27 28 32 34 36 41 44 47 49 51 52 55 55 57 60 61
32 29 32 33 30 33 33 37 41 42 44 46 46 40 37 36 36 34 36 33 31 34 40 39 31 30 22 21 24 24 26 28 30 34 38 41 44 46 47 48 51 54 56 58
34 29 31 36 36 35 35 40 44 45 49 50 49 46 40 39 37 35 35 32 35 32 38 37 34 24 25 26 22 18 20 25 30 34 37 41 43 44 44 45 47 49 51 52
33 30 36 34 39 42 33 36 45 39 46 47 43 45 44 41 39 38 39 37 33 32 34 35 28 25 24 23 23 24 26 29 34 39 42 44 45 46 46 46 47 48 48 48
32 35 35 38 40 41 41 42 39 39 43 45 43 44 44 42 41 41 36 38 38 42 40 36 31 26 26 25 26 27 29 33 37 41 44 47 49 48 48 49 50 50 48 46
Wind_Direction
16 15 15 8 353 337 31 40 42 53 64 42 74 91 140 237 226 144 165 173 238 244 244 229 221 211 224 226 218 226 242 246 238 256 264 254 255 245 249 258 265 274 272 273
13 15 14 10 353 356 31 34 47 61 58 49 32 182 183 184 291 293 244 237 242 264 266 262 278 283 282 253 266 258 238 260 251 250 257 264 259 253 259 272 266 271 271 275
13 14 14 6 354 357 25 27 30 44 46 50 27 24 217 201 207 241 288 268 254 268 294 305 295 314 291 298 314 287 278 285 273 262 267 273 264 255 264 261 257 268 268 277
13 14 15 13 353 353 24 17 22 27 29 38 17 351 282 274 286 268 260 274 281 281 284 293 296 305 311 300 286 299 307 294 293 294 290 285 275 270 268 263 265 263 265 266
14 15 16 16 358 352 17 17 8 8 31 34 21 352 335 313 288 286 286 289 283 291 288 282 282 282 279 288 294 305 308 299 304 289 292 289 273 274 272 274 275 271 278 278
14 15 15 16 7 10 11 7 358 3 8 359 357 8 342 314 292 307 310 281 270 293 289 281 287 287 289 299 297 300 301 315 302 297 304 292 282 277 273 274 281 273 270 273
12 13 15 16 17 12 15 9 358 349 346 331 336 347 326 322 307 299 300 295 284 309 286 275 319 324 321 320 304 293 298 298 297 296 301 283 306 309 303 286 297 289 274 287
11 11 11 13 13 8 10 5 356 343 335 325 309 316 316 308 305 313 310 315 311 298 292 296 298 299 304 307 308 301 281 286 296 298 294 293 297 301 299 302 293 286 282 283
4 4 8 10 12 8 4 358 351 336 323 329 317 303 311 320 304 296 322 335 321 309 304 302 292 290 296 298 299 301 293 283 284 298 289 288 300 300 288 285 296 300 286 282
356 356 358 359 4 8 3 351 346 330 318 311 318 311 306 308 322 299 297 313 309 316 301 297 299 290 294 293 298 306 299 288 274 269 274 274 292 289 273 285 289 308 283 275
346 348 350 350 352 356 356 347 341 326 312 297 301 307 313 299 300 305 300 303 311 309 298 300 300 290 295 294 297 299 298 285 278 269 267 266 300 288 273 302 317 312 308 304
336 339 342 346 344 350 352 342 335 324 310 298 293 281 289 295 286 293 291 289 301 308 303 303 302 289 295 287 292 288 278 274 280 280 273 296 317 312 313 302 314 318 326 318
328 331 336 342 344 346 344 336 320 313 305 296 291 290 295 313 268 279 286 284 290 297 300 299 299 290 292 287 284 283 281 285 281 284 289 304 312 323 316 314 324 323 323 331
321 324 329 337 340 344 343 333 320 312 307 300 300 310 293 292 294 261 255 272 285 290 290 289 291 292 301 292 294 287 291 297 285 280 282 298 298 310 327 320 322 317 308 309
316 316 323 332 340 343 341 329 318 317 306 293 287 285 285 288 245 281 252 260 269 278 280 281 286 291 295 296 296 287 294 290 286 290 304 308 317 322 316 314 315 311 302 299
307 314 324 337 345 346 340 322 320 320 338 295 296 308 296 286 293 249 276 265 272 274 275 275 283 289 289 292 296 297 303 330 300 291 311 311 312 315 316 312 308 306 300 301
314 305 331 343 346 352 332 316 314 329 343 312 289 294 321 316 305 287 278 272 277 272 275 274 277 284 291 283 282 303 316 326 324 320 310 302 306 307 309 307 304 302 300 300
335 348 349 345 319 312 280 236 221 353 329 325 306 297 299 316 300 292 286 275 271 269 271 282 282 284 282 278 294 302 298 301 312 317 320 313 308 305 302 303 301 296 294 296
27 12 352 306 309 296 279 319 71 34 359 330 325 312 306 318 294 289 291 285 272 276 272 273 284 282 280 286 290 293 300 304 305 313 316 313 307 307 308 304 299 295 293 295
33 333 317 323 294 352 340 312 10 23 360 5 327 315 312 314 301 297 290 289 278 282 273 293 279 277 287 292 297 298 299 302 302 302 303 305 306 304 305 304 301 294 292 291
325 324 329 289 344 330 298 346 38 25 346 17 347 343 317 318 300 285 287 305 293 285 293 290 288 287 296 301 301 300 297 296 298 301 300 303 304 304 301 299 300 297 293 289
345 333 297 284 295 293 288 321 5 2 329 9 249 239 187 247 235 236 235 259 278 303 295 304 301 307 318 319 313 308 303 303 306 306 302 302 304 306 303 301 301 301 297 290
340 320 312 286 297 288 298 299 330 324 326 275 271 268 253 243 226 250 245 249 263 303 308 296 316 341 332 325 327 321 314 312 314 311 311 310 311 306 304 301 303 301 298 295
321 332 314 289 296 297 310 310 300 305 294 278 278 280 274 279 277 277 264 272 278 291 285 294 338 18 19 349 331 330 325 329 334 335 334 330 321 313 310 309 308 305 301 298
306 309 302 285 293 312 327 315 308 306 296 288 286 286 282 276 276 274 280 287 285 308 278 295 320 36 42 30 22 345 332 340 340 336 335 334 331 325 323 321 318 313 308 304
304 312 293 304 306 308 334 327 314 328 307 298 292 279 278 281 282 277 274 280 295 299 298 314 338 343 347 335 335 334 330 331 331 330 329 329 325 319 317 319 323 322 318 312
303 302 304 308 314 317 323 325 330 328 311 294 292 284 279 284 282 283 289 286 296 293 304 306 305 327 318 326 327 337 339 338 339 334 335 329 317 310 319 318 314 318 322 318